| time (UTC) | temp F | wind direction | speed MPH | gust MPH | rain 1hr in | rain 24hr in | rain mn in | humidity % | barometer mb |
| 20260508000513 | 55 | 243 | 1.0 | 5.0 | 0.00 | 0.07 | 0.07 | 77 | 1003.1 |
| 20260508000009 | 55 | 233 | 1.0 | 3.0 | 0.00 | 0.07 | 0.07 | 77 | 1003.0 |
| 20260507235510 | 55 | 237 | 1.0 | 3.0 | 0.00 | 0.07 | 0.07 | 76 | 1003.0 |
| 20260507235011 | 56 | 243 | 1.0 | 3.0 | 0.00 | 0.07 | 0.07 | 75 | 1002.9 |
| 20260507234509 | 56 | 247 | 1.0 | 6.0 | 0.00 | 0.07 | 0.07 | 75 | 1002.8 |
| 20260507234010 | 56 | 238 | 2.0 | 6.0 | 0.00 | 0.07 | 0.07 | 75 | 1002.7 |
| 20260507233509 | 57 | 226 | 1.0 | 5.0 | 0.00 | 0.07 | 0.07 | 74 | 1002.7 |
| 20260507233010 | 57 | 221 | 1.0 | 5.0 | 0.00 | 0.07 | 0.07 | 74 | 1002.6 |
| 20260507232510 | 57 | 214 | 1.0 | 5.0 | 0.00 | 0.07 | 0.07 | 74 | 1002.6 |
| 20260507232012 | 57 | 226 | 1.0 | 5.0 | 0.00 | 0.07 | 0.07 | 74 | 1002.6 |
| 20260507231509 | 57 | 240 | 2.0 | 5.0 | 0.00 | 0.07 | 0.07 | 73 | 1002.4 |
| 20260507231012 | 58 | 231 | 2.0 | 4.0 | 0.00 | 0.07 | 0.07 | 73 | 1002.4 |
| 20260507230510 | 58 | 178 | 1.0 | 5.0 | 0.00 | 0.07 | 0.07 | 73 | 1002.4 |
| 20260507230006 | 58 | 160 | 1.0 | 5.0 | 0.00 | 0.07 | 0.07 | 73 | 1002.3 |
| 20260507225507 | 58 | 199 | 1.0 | 7.0 | 0.00 | 0.07 | 0.07 | 73 | 1002.3 |
| 20260507225009 | 58 | 227 | 3.0 | 7.0 | 0.00 | 0.07 | 0.07 | 73 | 1002.3 |
| 20260507224506 | 58 | 233 | 3.0 | 7.0 | 0.00 | 0.07 | 0.07 | 73 | 1002.3 |
| 20260507224006 | 58 | 210 | 3.0 | 7.0 | 0.00 | 0.07 | 0.07 | 73 | 1002.2 |
| 20260507223506 | 58 | 227 | 3.0 | 7.0 | 0.00 | 0.07 | 0.07 | 73 | 1002.3 |
| 20260507223007 | 59 | 217 | 4.0 | 9.0 | 0.00 | 0.07 | 0.07 | 72 | 1002.2 |
| 20260507222505 | 59 | 191 | 2.0 | 8.0 | 0.00 | 0.07 | 0.07 | 72 | 1002.3 |
| 20260507222006 | 59 | 176 | 1.0 | 5.0 | 0.00 | 0.07 | 0.07 | 74 | 1002.5 |
| 20260507221512 | 58 | 233 | 0.0 | 5.0 | 0.00 | 0.07 | 0.07 | 74 | 1002.4 |
| 20260507221010 | 58 | 194 | 1.0 | 5.0 | 0.00 | 0.07 | 0.07 | 74 | 1002.3 |
| 20260507220507 | 58 | 213 | 0.0 | 6.0 | 0.00 | 0.07 | 0.07 | 74 | 1002.3 |
| 20260507220010 | 59 | 207 | 3.0 | 6.0 | 0.00 | 0.07 | 0.07 | 72 | 1002.2 |
| 20260507215504 | 59 | 231 | 2.0 | 6.0 | 0.00 | 0.07 | 0.07 | 71 | 1002.2 |
| 20260507215005 | 59 | 245 | 0.0 | 6.0 | 0.00 | 0.07 | 0.07 | 70 | 1002.2 |
| 20260507214506 | 59 | 130 | 0.0 | 6.0 | 0.00 | 0.07 | 0.07 | 71 | 1002.3 |
| 20260507214006 | 59 | 82 | 1.0 | 7.0 | 0.00 | 0.07 | 0.07 | 68 | 1002.2 |
| 20260507213509 | 59 | 229 | 0.0 | 7.0 | 0.00 | 0.07 | 0.07 | 68 | 1002.2 |
| 20260507213004 | 59 | 195 | 1.0 | 8.0 | 0.00 | 0.07 | 0.07 | 69 | 1002.3 |
| 20260507212504 | 59 | 241 | 3.0 | 8.0 | 0.00 | 0.07 | 0.07 | 68 | 1002.3 |
| 20260507212003 | 58 | 82 | 0.0 | 8.0 | 0.00 | 0.07 | 0.07 | 68 | 1002.4 |
| 20260507211504 | 58 | 215 | 2.0 | 8.0 | 0.00 | 0.07 | 0.07 | 69 | 1002.4 |
| 20260507211004 | 58 | 221 | 1.0 | 6.0 | 0.00 | 0.07 | 0.07 | 69 | 1002.3 |
| 20260507210502 | 58 | 231 | 1.0 | 7.0 | 0.00 | 0.07 | 0.07 | 71 | 1002.3 |
| 20260507210006 | 57 | 120 | 1.0 | 7.0 | 0.00 | 0.07 | 0.07 | 73 | 1002.3 |
| 20260507205503 | 57 | 200 | 2.0 | 8.0 | 0.00 | 0.07 | 0.07 | 73 | 1002.3 |
| 20260507205004 | 57 | 229 | 3.0 | 8.0 | 0.00 | 0.07 | 0.07 | 72 | 1002.4 |
| 20260507204502 | 57 | 162 | 1.0 | 6.0 | 0.00 | 0.07 | 0.07 | 72 | 1002.3 |
| 20260507204001 | 58 | 118 | 1.0 | 9.0 | 0.00 | 0.07 | 0.07 | 73 | 1002.2 |
| 20260507203502 | 58 | 174 | 2.0 | 9.0 | 0.00 | 0.07 | 0.07 | 72 | 1002.3 |
| 20260507203103 | 58 | 151 | 0.0 | 7.0 | 0.00 | 0.07 | 0.07 | 73 | 1002.4 |
| 20260507203001 | 58 | 136 | 1.0 | 7.0 | 0.00 | 0.07 | 0.07 | 73 | 1002.4 |
| 20260507202503 | 58 | 148 | 1.0 | 5.0 | 0.00 | 0.07 | 0.07 | 73 | 1002.4 |
| 20260507202100 | 58 | 135 | 1.0 | 5.0 | 0.00 | 0.07 | 0.07 | 74 | 1002.4 |
| 20260507201608 | 57 | 199 | 1.0 | 5.0 | 0.00 | 0.07 | 0.07 | 73 | 1002.4 |
| 20260507201102 | 57 | 195 | 2.0 | 6.0 | 0.00 | 0.07 | 0.07 | 72 | 1002.5 |
| 20260507200600 | 56 | 192 | 1.0 | 6.0 | 0.00 | 0.07 | 0.07 | 70 | 1002.4 |
| 20260507200059 | 56 | 231 | 2.0 | 6.0 | 0.00 | 0.07 | 0.07 | 70 | 1002.4 |
| 20260507195559 | 56 | 220 | 1.0 | 6.0 | 0.00 | 0.07 | 0.07 | 70 | 1002.5 |
| 20260507195101 | 56 | 216 | 2.0 | 7.0 | 0.00 | 0.07 | 0.07 | 71 | 1002.6 |
| 20260507194635 | 57 | 218 | 3.0 | 7.0 | 0.00 | 0.07 | 0.07 | 69 | 1002.7 |
| 20260507194059 | 57 | 146 | 2.0 | 6.0 | 0.00 | 0.07 | 0.07 | 69 | 1002.8 |
| 20260507193559 | 57 | 151 | 1.0 | 6.0 | 0.01 | 0.07 | 0.07 | 68 | 1002.9 |
| 20260507193059 | 57 | 124 | 0.0 | 4.0 | 0.01 | 0.07 | 0.07 | 68 | 1002.7 |
| 20260507192558 | 57 | 102 | 0.0 | 2.0 | 0.02 | 0.07 | 0.07 | 68 | 1002.5 |
| 20260507192058 | 57 | 113 | 0.0 | 2.0 | 0.02 | 0.07 | 0.07 | 68 | 1002.4 |
| 20260507191558 | 57 | 101 | 0.0 | 4.0 | 0.02 | 0.07 | 0.07 | 71 | 1002.7 |
| 20260507191057 | 57 | 118 | 1.0 | 4.0 | 0.02 | 0.07 | 0.07 | 71 | 1002.4 |
| 20260507190559 | 57 | 120 | 1.0 | 8.0 | 0.02 | 0.07 | 0.07 | 72 | 1002.5 |
| 20260507190058 | 56 | 169 | 0.0 | 8.0 | 0.02 | 0.07 | 0.07 | 73 | 1003.0 |
| 20260507185557 | 56 | 231 | 1.0 | 4.0 | 0.02 | 0.07 | 0.07 | 76 | 1003.2 |
| 20260507185057 | 56 | 118 | 0.0 | 1.0 | 0.02 | 0.07 | 0.07 | 74 | 1003.3 |
| 20260507184605 | 55 | 25 | 0.0 | 0.0 | 0.02 | 0.07 | 0.07 | 74 | 1003.2 |
| 20260507184058 | 55 | 24 | 0.0 | 2.0 | 0.02 | 0.07 | 0.07 | 71 | 1003.4 |
| 20260507183556 | 55 | 46 | 0.0 | 4.0 | 0.01 | 0.06 | 0.06 | 70 | 1003.3 |
| 20260507183057 | 55 | 44 | 1.0 | 4.0 | 0.01 | 0.06 | 0.06 | 65 | 1003.6 |
| 20260507182557 | 56 | 99 | 0.0 | 3.0 | 0.00 | 0.05 | 0.05 | 65 | 1003.4 |
| 20260507182058 | 56 | 54 | 0.0 | 3.0 | 0.00 | 0.05 | 0.05 | 63 | 1003.8 |
| 20260507181557 | 57 | 141 | 0.0 | 2.0 | 0.00 | 0.05 | 0.05 | 66 | 1003.6 |
| 20260507181056 | 57 | 128 | 0.0 | 4.0 | 0.00 | 0.05 | 0.05 | 63 | 1003.5 |
| 20260507180559 | 57 | 80 | 1.0 | 4.0 | 0.00 | 0.05 | 0.05 | 65 | 1003.4 |
| 20260507175558 | 57 | 51 | 1.0 | 4.0 | 0.00 | 0.05 | 0.05 | 61 | 1003.7 |
| 20260507175055 | 56 | 122 | 0.0 | 4.0 | 0.00 | 0.05 | 0.05 | 62 | 1003.8 |
| 20260507174556 | 56 | 128 | 0.0 | 4.0 | 0.00 | 0.05 | 0.05 | 62 | 1003.8 |
| 20260507174054 | 56 | 22 | 1.0 | 4.0 | 0.00 | 0.05 | 0.05 | 60 | 1003.5 |
| 20260507173554 | 56 | 113 | 0.0 | 3.0 | 0.00 | 0.05 | 0.05 | 63 | 1003.5 |
| 20260507173055 | 56 | 61 | 0.0 | 2.0 | 0.00 | 0.05 | 0.05 | 64 | 1003.6 |
| 20260507172557 | 56 | 122 | 0.0 | 5.0 | 0.00 | 0.05 | 0.05 | 67 | 1004.0 |
| 20260507172054 | 56 | 324 | 1.0 | 5.0 | 0.00 | 0.05 | 0.05 | 64 | 1003.9 |
| 20260507171553 | 55 | 55 | 0.0 | 5.0 | 0.00 | 0.05 | 0.05 | 62 | 1004.2 |
| 20260507171054 | 55 | 11 | 2.0 | 5.0 | 0.00 | 0.05 | 0.05 | 66 | 1004.1 |
| 20260507170553 | 55 | 77 | 0.0 | 5.0 | 0.00 | 0.05 | 0.05 | 68 | 1004.1 |
| 20260507170053 | 55 | 345 | 2.0 | 5.0 | 0.00 | 0.05 | 0.05 | 69 | 1004.1 |
| 20260507165553 | 55 | 64 | 1.0 | 5.0 | 0.00 | 0.05 | 0.05 | 68 | 1004.1 |
| 20260507165051 | 55 | 72 | 0.0 | 4.0 | 0.00 | 0.05 | 0.05 | 69 | 1004.3 |
| 20260507164555 | 55 | 354 | 1.0 | 4.0 | 0.00 | 0.05 | 0.05 | 69 | 1004.4 |
| 20260507164051 | 55 | 351 | 1.0 | 4.0 | 0.00 | 0.05 | 0.05 | 68 | 1004.5 |
| 20260507163553 | 55 | 300 | 0.0 | 3.0 | 0.00 | 0.05 | 0.05 | 66 | 1004.9 |
| 20260507163051 | 56 | 8 | 0.0 | 3.0 | 0.00 | 0.05 | 0.05 | 67 | 1004.6 |
| 20260507162551 | 56 | 358 | 0.0 | 4.0 | 0.00 | 0.05 | 0.05 | 66 | 1004.6 |
| 20260507162051 | 56 | 259 | 1.0 | 4.0 | 0.00 | 0.05 | 0.05 | 66 | 1004.7 |
| 20260507161553 | 56 | 99 | 0.0 | 5.0 | 0.00 | 0.05 | 0.05 | 68 | 1004.7 |
| 20260507161051 | 56 | 59 | 1.0 | 5.0 | 0.00 | 0.05 | 0.05 | 68 | 1004.5 |
| 20260507160550 | 55 | 136 | 1.0 | 6.0 | 0.00 | 0.05 | 0.05 | 68 | 1004.5 |
| 20260507160051 | 55 | 15 | 2.0 | 6.0 | 0.00 | 0.05 | 0.05 | 67 | 1004.7 |
| 20260507155549 | 55 | 316 | 0.0 | 7.0 | 0.00 | 0.06 | 0.05 | 67 | 1004.8 |
| 20260507155053 | 55 | 61 | 2.0 | 7.0 | 0.00 | 0.06 | 0.05 | 67 | 1004.8 |
| 20260507154650 | 56 | 47 | 3.0 | 7.0 | 0.00 | 0.06 | 0.05 | 66 | 1004.9 |
| 20260507154050 | 56 | 50 | 2.0 | 11.0 | 0.00 | 0.06 | 0.05 | 65 | 1004.7 |
| 20260507153549 | 56 | 40 | 2.0 | 8.0 | 0.00 | 0.06 | 0.05 | 65 | 1004.8 |
| 20260507153049 | 56 | 56 | 3.0 | 6.0 | 0.00 | 0.06 | 0.05 | 65 | 1004.7 |
| 20260507152552 | 56 | 59 | 1.0 | 6.0 | 0.00 | 0.06 | 0.05 | 67 | 1004.7 |
| 20260507152049 | 56 | 75 | 1.0 | 9.0 | 0.00 | 0.06 | 0.05 | 67 | 1004.9 |
| 20260507151547 | 56 | 58 | 3.0 | 9.0 | 0.00 | 0.06 | 0.05 | 67 | 1004.8 |
| 20260507151048 | 56 | 65 | 1.0 | 8.0 | 0.00 | 0.06 | 0.05 | 68 | 1004.7 |
| 20260507150547 | 56 | 93 | 2.0 | 8.0 | 0.00 | 0.06 | 0.05 | 69 | 1004.7 |
| 20260507150047 | 56 | 55 | 3.0 | 7.0 | 0.00 | 0.06 | 0.05 | 69 | 1004.6 |
| 20260507145546 | 56 | 67 | 1.0 | 4.0 | 0.00 | 0.11 | 0.05 | 71 | 1004.6 |
| 20260507145046 | 56 | 58 | 1.0 | 4.0 | 0.00 | 0.11 | 0.05 | 71 | 1004.9 |
| 20260507144546 | 56 | 41 | 1.0 | 4.0 | 0.00 | 0.11 | 0.05 | 72 | 1005.0 |
| 20260507144046 | 56 | 342 | 1.0 | 7.0 | 0.00 | 0.11 | 0.05 | 72 | 1005.2 |
| 20260507143546 | 56 | 35 | 0.0 | 7.0 | 0.00 | 0.11 | 0.05 | 72 | 1005.3 |
| 20260507143046 | 56 | 301 | 1.0 | 5.0 | 0.00 | 0.11 | 0.05 | 71 | 1005.4 |
| 20260507142546 | 56 | 57 | 2.0 | 10.0 | 0.00 | 0.11 | 0.05 | 72 | 1005.2 |
| 20260507142044 | 56 | 47 | 4.0 | 10.0 | 0.00 | 0.11 | 0.05 | 71 | 1005.2 |
| 20260507141545 | 56 | 31 | 1.0 | 6.0 | 0.00 | 0.11 | 0.05 | 72 | 1005.3 |
| 20260507141044 | 56 | 15 | 2.0 | 8.0 | 0.00 | 0.11 | 0.05 | 72 | 1005.1 |
| 20260507140543 | 56 | 30 | 3.0 | 8.0 | 0.00 | 0.11 | 0.05 | 71 | 1005.4 |
| 20260507140043 | 56 | 6 | 2.0 | 7.0 | 0.00 | 0.11 | 0.05 | 70 | 1005.6 |
| 20260507135546 | 56 | 34 | 2.0 | 10.0 | 0.00 | 0.14 | 0.05 | 71 | 1005.5 |
| 20260507135043 | 56 | 20 | 1.0 | 8.0 | 0.00 | 0.14 | 0.05 | 71 | 1005.4 |
| 20260507134542 | 56 | 124 | 1.0 | 13.0 | 0.00 | 0.14 | 0.05 | 72 | 1005.4 |
| 20260507134041 | 56 | 25 | 3.0 | 13.0 | 0.00 | 0.14 | 0.05 | 71 | 1005.3 |
| 20260507133541 | 56 | 87 | 1.0 | 9.0 | 0.00 | 0.14 | 0.05 | 73 | 1005.3 |
| 20260507133041 | 56 | 41 | 2.0 | 9.0 | 0.00 | 0.14 | 0.05 | 74 | 1005.1 |
| 20260507132540 | 56 | 5 | 2.0 | 11.0 | 0.00 | 0.14 | 0.05 | 74 | 1005.1 |
| 20260507132040 | 56 | 49 | 2.0 | 9.0 | 0.00 | 0.14 | 0.05 | 74 | 1005.1 |
| 20260507131554 | 56 | 15 | 2.0 | 9.0 | 0.00 | 0.14 | 0.05 | 74 | 1005.1 |
| 20260507131041 | 56 | 24 | 3.0 | 9.0 | 0.00 | 0.14 | 0.05 | 75 | 1005.1 |
| 20260507130540 | 56 | 41 | 1.0 | 8.0 | 0.00 | 0.14 | 0.05 | 76 | 1005.0 |
| 20260507130041 | 56 | 39 | 3.0 | 10.0 | 0.00 | 0.14 | 0.05 | 76 | 1005.2 |
| 20260507125537 | 56 | 307 | 2.0 | 10.0 | 0.00 | 0.14 | 0.05 | 77 | 1005.2 |
| 20260507125036 | 56 | 70 | 2.0 | 8.0 | 0.00 | 0.14 | 0.05 | 78 | 1005.2 |
| 20260507124536 | 56 | 70 | 1.0 | 9.0 | 0.00 | 0.14 | 0.05 | 79 | 1005.3 |
| 20260507124035 | 56 | 9 | 3.0 | 9.0 | 0.00 | 0.14 | 0.05 | 79 | 1005.2 |
| 20260507123535 | 56 | 52 | 2.0 | 7.0 | 0.00 | 0.14 | 0.05 | 80 | 1005.1 |
| 20260507123035 | 56 | 37 | 2.0 | 7.0 | 0.00 | 0.14 | 0.05 | 80 | 1005.0 |
| 20260507122533 | 56 | 348 | 0.0 | 7.0 | 0.00 | 0.14 | 0.05 | 81 | 1005.0 |
| 20260507122034 | 56 | 30 | 2.0 | 7.0 | 0.00 | 0.14 | 0.05 | 81 | 1005.0 |
| 20260507121533 | 56 | 18 | 1.0 | 5.0 | 0.00 | 0.14 | 0.05 | 81 | 1005.0 |
| 20260507121033 | 56 | 46 | 0.0 | 2.0 | 0.00 | 0.14 | 0.05 | 83 | 1004.8 |
| 20260507120531 | 55 | 84 | 0.0 | 4.0 | 0.00 | 0.14 | 0.05 | 83 | 1004.6 |
| 20260507120031 | 55 | 30 | 0.0 | 5.0 | 0.00 | 0.14 | 0.05 | 83 | 1004.5 |
| 20260507115532 | 55 | 61 | 1.0 | 6.0 | 0.00 | 0.14 | 0.05 | 83 | 1004.5 |
| 20260507115035 | 55 | 49 | 1.0 | 4.0 | 0.00 | 0.14 | 0.05 | 83 | 1004.6 |
| 20260507114630 | 55 | 4 | 0.0 | 4.0 | 0.00 | 0.14 | 0.05 | 84 | 1004.7 |
| 20260507114030 | 55 | 51 | 0.0 | 6.0 | 0.00 | 0.14 | 0.05 | 84 | 1004.7 |
| 20260507113532 | 54 | 40 | 1.0 | 6.0 | 0.00 | 0.14 | 0.05 | 84 | 1004.6 |
| 20260507113030 | 54 | 57 | 0.0 | 5.0 | 0.00 | 0.14 | 0.05 | 84 | 1004.6 |
| 20260507112531 | 54 | 46 | 0.0 | 6.0 | 0.00 | 0.14 | 0.05 | 84 | 1004.4 |
| 20260507112029 | 54 | 62 | 2.0 | 7.0 | 0.00 | 0.14 | 0.05 | 84 | 1004.3 |
| 20260507111530 | 54 | 57 | 1.0 | 7.0 | 0.00 | 0.14 | 0.05 | 84 | 1004.4 |
| 20260507111027 | 54 | 49 | 0.0 | 5.0 | 0.00 | 0.14 | 0.05 | 85 | 1004.3 |
| 20260507110527 | 54 | 62 | 1.0 | 6.0 | 0.00 | 0.14 | 0.05 | 85 | 1004.5 |
| 20260507110027 | 54 | 66 | 1.0 | 6.0 | 0.00 | 0.14 | 0.05 | 86 | 1004.6 |
| 20260507105527 | 54 | 356 | 0.0 | 3.0 | 0.00 | 0.14 | 0.05 | 86 | 1004.5 |
| 20260507105026 | 54 | 281 | 0.0 | 3.0 | 0.00 | 0.14 | 0.05 | 86 | 1004.4 |
| 20260507104527 | 54 | 322 | 0.0 | 3.0 | 0.00 | 0.14 | 0.05 | 86 | 1004.4 |
| 20260507104027 | 54 | 75 | 0.0 | 6.0 | 0.00 | 0.14 | 0.05 | 86 | 1004.4 |
| 20260507103525 | 54 | 37 | 2.0 | 6.0 | 0.00 | 0.14 | 0.05 | 86 | 1004.4 |
| 20260507103030 | 54 | 15 | 1.0 | 5.0 | 0.00 | 0.14 | 0.05 | 86 | 1004.2 |
| 20260507102524 | 54 | 58 | 0.0 | 5.0 | 0.00 | 0.14 | 0.05 | 86 | 1004.2 |
| 20260507102024 | 54 | 38 | 1.0 | 5.0 | 0.00 | 0.14 | 0.05 | 86 | 1003.9 |
| 20260507101524 | 54 | 60 | 1.0 | 5.0 | 0.00 | 0.14 | 0.05 | 86 | 1003.9 |
| 20260507101025 | 54 | 45 | 0.0 | 5.0 | 0.00 | 0.14 | 0.05 | 86 | 1004.0 |
| 20260507100526 | 54 | 54 | 1.0 | 6.0 | 0.00 | 0.14 | 0.05 | 86 | 1003.8 |
| 20260507100032 | 54 | 53 | 1.0 | 3.0 | 0.00 | 0.14 | 0.05 | 86 | 1004.0 |
| 20260507095523 | 54 | 344 | 0.0 | 3.0 | 0.00 | 0.14 | 0.05 | 86 | 1004.2 |
| 20260507095023 | 54 | 70 | 0.0 | 4.0 | 0.00 | 0.14 | 0.05 | 86 | 1004.2 |
| 20260507094526 | 54 | 57 | 1.0 | 4.0 | 0.00 | 0.14 | 0.05 | 86 | 1004.1 |
| 20260507094021 | 54 | 43 | 0.0 | 3.0 | 0.00 | 0.14 | 0.05 | 86 | 1004.1 |
| 20260507093522 | 54 | 356 | 0.0 | 4.0 | 0.00 | 0.14 | 0.05 | 86 | 1003.9 |
| 20260507093021 | 54 | 34 | 1.0 | 5.0 | 0.00 | 0.14 | 0.05 | 85 | 1004.0 |
| 20260507092521 | 54 | 49 | 1.0 | 5.0 | 0.00 | 0.14 | 0.05 | 86 | 1003.9 |
| 20260507092020 | 54 | 56 | 1.0 | 4.0 | 0.00 | 0.14 | 0.05 | 86 | 1004.1 |
| 20260507091526 | 54 | 264 | 0.0 | 3.0 | 0.00 | 0.14 | 0.05 | 86 | 1004.1 |
| 20260507091020 | 54 | 31 | 0.0 | 5.0 | 0.01 | 0.14 | 0.05 | 87 | 1003.9 |
| 20260507090519 | 54 | 8 | 0.0 | 4.0 | 0.01 | 0.14 | 0.05 | 87 | 1003.8 |
| 20260507090022 | 54 | 350 | 1.0 | 4.0 | 0.01 | 0.14 | 0.05 | 87 | 1003.6 |
| 20260507085518 | 54 | 48 | 0.0 | 5.0 | 0.01 | 0.14 | 0.05 | 87 | 1003.5 |
| 20260507085019 | 54 | 39 | 1.0 | 5.0 | 0.01 | 0.14 | 0.05 | 87 | 1003.4 |
| 20260507084519 | 54 | 45 | 0.0 | 2.0 | 0.01 | 0.14 | 0.05 | 87 | 1003.6 |
| 20260507084017 | 54 | 23 | 0.0 | 2.0 | 0.01 | 0.14 | 0.05 | 87 | 1003.8 |
| 20260507083520 | 54 | 19 | 0.0 | 3.0 | 0.01 | 0.14 | 0.05 | 87 | 1003.7 |
| 20260507083021 | 54 | 46 | 0.0 | 3.0 | 0.01 | 0.14 | 0.05 | 86 | 1003.7 |
| 20260507082516 | 55 | 45 | 0.0 | 3.0 | 0.01 | 0.14 | 0.05 | 86 | 1003.9 |
| 20260507082015 | 55 | 298 | 0.0 | 6.0 | 0.01 | 0.14 | 0.05 | 86 | 1003.9 |
| 20260507081515 | 55 | 303 | 1.0 | 6.0 | 0.01 | 0.14 | 0.05 | 85 | 1004.3 |
| 20260507081014 | 55 | 299 | 1.0 | 10.0 | 0.00 | 0.13 | 0.04 | 85 | 1004.1 |
| 20260507080512 | 55 | 41 | 2.0 | 10.0 | 0.00 | 0.13 | 0.04 | 85 | 1003.7 |
| 20260507080011 | 55 | 51 | 3.0 | 12.0 | 0.00 | 0.13 | 0.04 | 85 | 1003.2 |
| 20260507075509 | 55 | 30 | 4.0 | 12.0 | 0.00 | 0.13 | 0.04 | 86 | 1003.1 |
| 20260507075009 | 56 | 38 | 2.0 | 8.0 | 0.00 | 0.13 | 0.04 | 87 | 1003.2 |
| 20260507074510 | 56 | 23 | 1.0 | 9.0 | 0.00 | 0.13 | 0.04 | 88 | 1003.2 |
| 20260507074012 | 56 | 60 | 2.0 | 6.0 | 0.00 | 0.13 | 0.04 | 88 | 1003.1 |
| 20260507073511 | 56 | 313 | 2.0 | 7.0 | 0.00 | 0.13 | 0.04 | 88 | 1003.2 |
| 20260507073008 | 56 | 347 | 1.0 | 7.0 | 0.00 | 0.13 | 0.04 | 89 | 1003.0 |
| 20260507072507 | 56 | 53 | 1.0 | 6.0 | 0.00 | 0.13 | 0.04 | 89 | 1002.9 |
| 20260507072008 | 56 | 8 | 0.0 | 6.0 | 0.00 | 0.13 | 0.04 | 89 | 1002.9 |
| 20260507071519 | 56 | 58 | 2.0 | 9.0 | 0.00 | 0.13 | 0.04 | 89 | 1003.0 |
| 20260507071006 | 56 | 11 | 2.0 | 9.0 | 0.00 | 0.13 | 0.04 | 89 | 1003.0 |
| 20260507070507 | 56 | 75 | 0.0 | 5.0 | 0.00 | 0.13 | 0.04 | 89 | 1003.1 |
| 20260507070009 | 56 | 338 | 1.0 | 7.0 | 0.00 | 0.13 | 0.04 | 88 | 1003.2 |
| 20260507065505 | 56 | 42 | 2.0 | 9.0 | 0.00 | 0.13 | 0.04 | 88 | 1003.0 |
| 20260507065004 | 56 | 60 | 3.0 | 10.0 | 0.00 | 0.13 | 0.04 | 89 | 1003.0 |
| 20260507064501 | 56 | 65 | 4.0 | 11.0 | 0.00 | 0.13 | 0.04 | 89 | 1003.0 |
| 20260507064003 | 56 | 65 | 2.0 | 12.0 | 0.01 | 0.13 | 0.04 | 89 | 1003.2 |
| 20260507063501 | 57 | 64 | 3.0 | 12.0 | 0.01 | 0.13 | 0.04 | 90 | 1003.4 |
| 20260507063103 | 57 | 63 | 0.0 | 9.0 | 0.01 | 0.13 | 0.04 | 90 | 1003.4 |
| 20260507062559 | 57 | 301 | 1.0 | 8.0 | 0.01 | 0.13 | 0.04 | 90 | 1003.5 |
| 20260507062058 | 57 | 27 | 1.0 | 9.0 | 0.02 | 0.13 | 0.04 | 91 | 1003.1 |
| 20260507061600 | 57 | 290 | 2.0 | 9.0 | 0.02 | 0.13 | 0.04 | 91 | 1002.8 |
| 20260507061056 | 57 | 60 | 2.0 | 7.0 | 0.02 | 0.13 | 0.04 | 90 | 1002.5 |
| 20260507060554 | 57 | 35 | 0.0 | 6.0 | 0.02 | 0.13 | 0.04 | 90 | 1002.1 |
| 20260507060056 | 57 | 42 | 2.0 | 6.0 | 0.02 | 0.13 | 0.04 | 90 | 1001.6 |
| 20260507055555 | 57 | 51 | 1.0 | 6.0 | 0.02 | 0.13 | 0.04 | 90 | 1001.6 |
| 20260507055052 | 57 | 56 | 1.0 | 7.0 | 0.02 | 0.13 | 0.04 | 90 | 1001.5 |
| 20260507054552 | 58 | 75 | 2.0 | 7.0 | 0.03 | 0.13 | 0.04 | 89 | 1001.5 |
| 20260507054051 | 58 | 59 | 2.0 | 9.0 | 0.02 | 0.12 | 0.03 | 89 | 1001.7 |
| 20260507053551 | 58 | 65 | 3.0 | 10.0 | 0.02 | 0.12 | 0.03 | 89 | 1002.0 |
| 20260507053114 | 59 | 52 | 4.0 | 10.0 | 0.03 | 0.12 | 0.03 | 89 | 1002.4 |
| 20260507052546 | 59 | 59 | 3.0 | 7.0 | 0.03 | 0.12 | 0.03 | 89 | 1002.6 |
| 20260507052045 | 60 | 48 | 1.0 | 8.0 | 0.02 | 0.11 | 0.02 | 89 | 1002.8 |
| 20260507051545 | 60 | 65 | 2.0 | 10.0 | 0.02 | 0.11 | 0.02 | 89 | 1002.9 |
| 20260507051042 | 61 | 6 | 4.0 | 10.0 | 0.02 | 0.11 | 0.02 | 88 | 1003.0 |
| 20260507050540 | 61 | 64 | 0.0 | 9.0 | 0.02 | 0.11 | 0.02 | 88 | 1003.1 |
| 20260507050043 | 62 | 345 | 0.0 | 8.0 | 0.02 | 0.11 | 0.02 | 89 | 1003.0 |
| 20260507045540 | 62 | 68 | 2.0 | 10.0 | 0.02 | 0.11 | 0.02 | 88 | 1003.0 |
| 20260507045035 | 63 | 14 | 2.0 | 6.0 | 0.02 | 0.11 | 0.02 | 88 | 1002.8 |
| 20260507044536 | 63 | 74 | 4.0 | 11.0 | 0.01 | 0.10 | 0.01 | 88 | 1002.4 |
| 20260507044035 | 64 | 51 | 3.0 | 11.0 | 0.01 | 0.10 | 0.01 | 87 | 1002.4 |
| 20260507043533 | 64 | 290 | 3.0 | 7.0 | 0.01 | 0.10 | 0.01 | 88 | 1002.8 |
| 20260507043035 | 65 | 294 | 1.0 | 3.0 | 0.00 | 0.09 | 0.00 | 88 | 1002.7 |
| 20260507042533 | 65 | 55 | 0.0 | 3.0 | 0.00 | 0.09 | 0.00 | 87 | 1002.3 |
| 20260507042030 | 65 | 259 | 0.0 | 1.0 | 0.00 | 0.09 | 0.00 | 87 | 1002.3 |
| 20260507041530 | 65 | 350 | 0.0 | 3.0 | 0.00 | 0.09 | 0.00 | 87 | 1002.0 |
| 20260507041029 | 65 | 348 | 0.0 | 3.0 | 0.00 | 0.09 | 0.00 | 87 | 1002.1 |
| 20260507040527 | 65 | 356 | 0.0 | 1.0 | 0.00 | 0.09 | 0.00 | 86 | 1002.3 |
| 20260507040029 | 65 | 274 | 0.0 | 2.0 | 0.00 | 0.09 | 0.00 | 86 | 1002.4 |
| 20260507035527 | 65 | 273 | 0.0 | 2.0 | 0.00 | 0.09 | 0.09 | 86 | 1002.2 |
| 20260507035027 | 65 | 245 | 0.0 | 0.0 | 0.00 | 0.09 | 0.09 | 86 | 1002.1 |
| 20260507034535 | 65 | 245 | 0.0 | 0.0 | 0.00 | 0.09 | 0.09 | 85 | 1002.1 |
| 20260507034026 | 65 | 245 | 0.0 | 0.0 | 0.00 | 0.09 | 0.09 | 85 | 1002.0 |
| 20260507033526 | 66 | 245 | 0.0 | 0.0 | 0.00 | 0.09 | 0.09 | 85 | 1001.8 |
| 20260507033038 | 66 | 245 | 0.0 | 0.0 | 0.00 | 0.09 | 0.09 | 85 | 1001.7 |
| 20260507032526 | 66 | 245 | 0.0 | 0.0 | 0.00 | 0.09 | 0.09 | 84 | 1001.7 |
| 20260507032026 | 66 | 245 | 0.0 | 0.0 | 0.00 | 0.09 | 0.09 | 84 | 1001.8 |
| 20260507031525 | 66 | 246 | 0.0 | 0.0 | 0.00 | 0.09 | 0.09 | 85 | 1002.0 |
| 20260507031026 | 66 | 246 | 0.0 | 1.0 | 0.00 | 0.09 | 0.09 | 85 | 1002.3 |
| 20260507030525 | 66 | 237 | 0.0 | 2.0 | 0.00 | 0.09 | 0.09 | 85 | 1002.2 |
| 20260507030027 | 66 | 298 | 0.0 | 2.0 | 0.00 | 0.09 | 0.09 | 85 | 1002.1 |
| 20260507025524 | 65 | 257 | 0.0 | 1.0 | 0.00 | 0.09 | 0.09 | 85 | 1001.8 |
| 20260507025025 | 65 | 257 | 0.0 | 1.0 | 0.00 | 0.09 | 0.09 | 85 | 1001.9 |
| 20260507024524 | 65 | 257 | 0.0 | 1.0 | 0.00 | 0.09 | 0.09 | 85 | 1001.9 |
| 20260507024027 | 66 | 255 | 0.0 | 1.0 | 0.00 | 0.09 | 0.09 | 84 | 1001.9 |
| 20260507023524 | 66 | 223 | 0.0 | 1.0 | 0.00 | 0.09 | 0.09 | 84 | 1001.7 |
| 20260507023027 | 66 | 175 | 0.0 | 0.0 | 0.00 | 0.09 | 0.09 | 84 | 1001.3 |
| 20260507022524 | 66 | 175 | 0.0 | 1.0 | 0.00 | 0.09 | 0.09 | 83 | 1001.2 |
| 20260507022024 | 66 | 174 | 0.0 | 1.0 | 0.00 | 0.09 | 0.09 | 83 | 1001.3 |
| 20260507021523 | 66 | 189 | 0.0 | 2.0 | 0.00 | 0.09 | 0.09 | 84 | 1001.2 |
| 20260507021026 | 66 | 176 | 0.0 | 2.0 | 0.00 | 0.09 | 0.09 | 84 | 1001.3 |
| 20260507020523 | 66 | 228 | 0.0 | 2.0 | 0.00 | 0.09 | 0.09 | 84 | 1001.5 |
| 20260507020024 | 66 | 234 | 0.0 | 1.0 | 0.00 | 0.09 | 0.09 | 84 | 1001.7 |
| 20260507015523 | 66 | 212 | 0.0 | 1.0 | 0.00 | 0.09 | 0.09 | 84 | 1001.6 |
| 20260507015024 | 65 | 243 | 0.0 | 1.0 | 0.00 | 0.09 | 0.09 | 84 | 1001.7 |
| 20260507014523 | 66 | 243 | 0.0 | 1.0 | 0.00 | 0.09 | 0.09 | 83 | 1001.8 |
| 20260507014023 | 66 | 243 | 0.0 | 1.0 | 0.00 | 0.09 | 0.09 | 83 | 1001.6 |
| 20260507013522 | 66 | 243 | 0.0 | 1.0 | 0.00 | 0.09 | 0.09 | 83 | 1001.9 |
| 20260507013022 | 66 | 237 | 0.0 | 3.0 | 0.00 | 0.09 | 0.09 | 83 | 1002.0 |
| 20260507012522 | 66 | 233 | 0.0 | 3.0 | 0.00 | 0.09 | 0.09 | 83 | 1001.9 |
| 20260507012022 | 66 | 232 | 0.0 | 1.0 | 0.00 | 0.09 | 0.09 | 82 | 1002.0 |
| 20260507011522 | 67 | 232 | 0.0 | 1.0 | 0.00 | 0.09 | 0.09 | 82 | 1001.9 |
| 20260507011021 | 67 | 232 | 0.0 | 1.0 | 0.00 | 0.09 | 0.09 | 82 | 1001.6 |
| 20260507010521 | 67 | 232 | 0.0 | 2.0 | 0.00 | 0.09 | 0.09 | 81 | 1001.4 |
| 20260507010025 | 67 | 224 | 0.0 | 4.0 | 0.00 | 0.09 | 0.09 | 81 | 1001.6 |
| 20260507005522 | 67 | 233 | 1.0 | 5.0 | 0.00 | 0.09 | 0.09 | 81 | 1001.5 |
| 20260507005020 | 67 | 237 | 1.0 | 5.0 | 0.00 | 0.09 | 0.09 | 81 | 1001.5 |
| 20260507004527 | 68 | 218 | 2.0 | 4.0 | 0.00 | 0.09 | 0.09 | 81 | 1001.4 |
| 20260507004021 | 68 | 202 | 0.0 | 4.0 | 0.00 | 0.09 | 0.09 | 80 | 1001.3 |
| 20260507003521 | 68 | 203 | 1.0 | 5.0 | 0.00 | 0.09 | 0.09 | 80 | 1001.4 |
| 20260507003021 | 68 | 237 | 1.0 | 5.0 | 0.00 | 0.09 | 0.09 | 80 | 1001.4 |
| 20260507002520 | 68 | 224 | 2.0 | 5.0 | 0.00 | 0.09 | 0.09 | 80 | 1001.4 |
| 20260507002023 | 68 | 206 | 0.0 | 6.0 | 0.00 | 0.09 | 0.09 | 80 | 1001.5 |
| 20260507001520 | 68 | 186 | 2.0 | 6.0 | 0.00 | 0.09 | 0.09 | 80 | 1001.8 |
| 20260507001019 | 69 | 229 | 2.0 | 10.0 | 0.00 | 0.09 | 0.09 | 79 | 1001.6 |